STARLINK-4010, 52862

Orbit data source: Space-Track

STARLINK-4010, 52862 is a payload satellite owned by SpaceX/Seattle (US) in LEO that was launched on Fri, 17 Jun 2022 UTC via an FALCON 9 launch vehicle from the Air Force Eastern Test Range (AFETR). Payload-class satellites include a variety of spacecraft equipped with specific instruments for various scientific and technological missions. These include communications satellites like Starlink; space stations such as the ISS; scientific satellites like the Hubble; Earth observation satellites from companies like Planet Labs, Umbra, and HawkEye 360; GPS; miniature CubeSats for education and research; and military/defense satellites.

Loading next visibility...
Identifier
52862, 2022-062AJ
Orbit
LEO
Country
Flag of USUS
Related business
Manufacturer
SpaceX/Seattle
Mission
Operational Commercial Communications
Bus & Motor
STARLINK, Unknown motor
Mass
297 kg wet, ~275 kg dry
Launch date (UTC)
2022-06-17 (3 years ago)
Launch vehicle
FALCON 9
Launch site
Air Force Eastern Test Range (AFETR)
Object type
Payload
Rocket body
Debris
Shape & HBR
Box + 1 Pan, 10.1 m
Radar Cross Section
13.562 m², Large (>1 m²)

Expand to show TLE details & history
Last TLE update: 9 hours ago

TLE from 9 hours ago
0 STARLINK-4010
1 52862U 22062AJ  25346.89926574  .00000419  00000-0  44404-4 0  9999
2 52862  53.2197  53.7407 0001335  94.1577 265.9568 15.08828425192829
Epoch: 2025-12-12T21:34Z
TLE epoch observation values (Epoch: 2025-12-12T21:34:56.559Z)
Latitude
-0.00003°
Longitude
8.17075°
Altitude
540.742 km
Speed
7.593 km/s
True Right ascension
03h 34m 57s
True Declination
0° 00' 00"
Sunlit
Object was in full shadow at epoch
Visualization orbit readout
Latitude
Unknown
Longitude
Unknown
Altitude
Unknown
Speed
Unknown
Apparent Right ascension
Unknown
Apparent Declination
Unknown
Sunlit
N/A
Visualization observer readout
Local Sidereal Time
05:23:36
Azimuth
Unknown
Elevation
Unknown
Doppler factor
Unknown
Orbital elements
Apogee altitude
540.947 km
Perigee altitude
539.1 km
Semi-major axis
6,918.16 km
Eccentricity
0.00013
Inclination
53.2197°
RAAN
53.7407°
Arg. of periapsis
94.1577°
True anomaly
265.94154°
Mean anomaly
265.9568°
Eccentric anomaly
265.94917°
Mean motion
3.77187 °/min
Orbital period
95.44 mins
BSTAR
0.000044404
Loading maneuver chart data...
Computing Atmospheric mass density...
Loading historical data...
Loading historical data...
Loading historical data...
Loading historical data...
Loading historical data...
Loading historical data...
Loading historical data...

Documentation

Showing up to 5 results
|